Home   Weather   Halle   Past weeks

Flag for Germany Past Weather in Halle, Saxony-Anhalt, Germany — Yesterday and Last 2 Weeks

54 °F

Partly sunny.

Feels Like: 51 °F
Forecast: 47 / 56 °F
Wind: 9 mph from Southwest

Location: Leipzig-Schkeuditz

Current Time: Oct 27, 2016 at 4:55:46 PM

Latest Report: Oct 27, 2016 at 4:20 PM

Visibility: N/A

Pressure: 30.45 "Hg

Humidity: 88%

Dew Point: 50 °F

Location of HalleLocation

Past Weather in Halle — Graph


Halle Temperature Yesterday

Maximum temperature yesterday: 48 °F (at 11:50 AM)
Minimum temperature yesterday: 43 °F (at 7:50 AM)
Average temperature yesterday: 46 °F

High & Low Weather Summary for the Past Weeks

High64 °F (Oct 16, 2:20 PM)100% (Oct 16, 7:20 AM)30.45 "Hg (Oct 16, 7:20 AM)
Low32 °F (Oct 23, 3:50 AM)52% (Oct 16, 4:20 PM)29.77 "Hg (Oct 15, 1:50 AM)
Average47 °F90%30.06 "Hg
* Reported Oct 12 3:20 PM — Oct 27 3:20 PM, Halle, Weather by CustomWeather, © 2016

Note: Actual official high and low records may vary slightly from our data, if they occured in-between our weather recording intervals... More about our weather records


Halle Weather History for the Previous 24 Hours

Scroll right to see more
Time TempWeatherWind HumidityBarometerVisibility
3:20 PM
Thu, Oct 27
54 °FBroken clouds.9 mph82%30.45 "HgN/A
2:50 PM54 °FBroken clouds.9 mph82%30.45 "HgN/A
2:20 PM54 °FPartly sunny.12 mph82%30.45 "Hg5 mi
1:50 PM54 °FBroken clouds.10 mph88%30.45 "Hg5 mi
1:20 PM54 °FPartly sunny.10 mph88%30.45 "Hg4 mi
12:50 PM52 °FPartly sunny.7 mph88%30.45 "Hg4 mi
12:20 PM50 °FFog.8 mph94%30.45 "Hg3 mi
11:50 AM50 °FLight rain. Fog.9 mph94%30.45 "Hg2 mi
11:20 AM48 °FDrizzle. Fog.8 mph94%30.45 "Hg2 mi
10:50 AM46 °FDrizzle. Fog.8 mph100%30.45 "Hg2 mi
10:20 AM46 °FFog.7 mph93%30.45 "Hg2 mi
9:50 AM46 °FLight rain. Fog.8 mph93%30.45 "Hg2 mi
9:20 AM46 °FLight rain. Low clouds.8 mph87%30.45 "Hg2 mi
8:50 AM46 °FOvercast.8 mph87%30.42 "Hg4 mi
8:20 AM45 °FMostly cloudy.8 mph93%30.42 "Hg4 mi
7:50 AM45 °FFog.8 mph93%30.42 "Hg2 mi
7:20 AM45 °FFog.7 mph93%30.42 "Hg2 mi
6:50 AM45 °FFog.7 mph93%30.39 "Hg2 mi
6:20 AM45 °FFog.7 mph93%30.42 "Hg2 mi
5:50 AM43 °FFog.6 mph100%30.39 "Hg2 mi
5:20 AM41 °FFog.6 mph100%30.39 "Hg2 mi
4:50 AM43 °FFog.8 mph93%30.39 "Hg2 mi
4:20 AM43 °FFog.9 mph100%30.39 "Hg2 mi
3:50 AM45 °FFog.7 mph93%30.39 "Hg3 mi
3:20 AM45 °FFog.8 mph100%30.39 "Hg3 mi
2:50 AM45 °FFog.7 mph100%30.39 "Hg3 mi
2:20 AM46 °FFog.6 mph93%30.39 "Hg3 mi
1:50 AM46 °FFog.6 mph93%30.39 "Hg3 mi
1:20 AM46 °FPassing clouds.6 mph93%30.39 "Hg4 mi
12:20 AM46 °FPassing clouds.5 mph93%30.42 "Hg4 mi
11:50 PM
Wed, Oct 26
46 °FPassing clouds.5 mph93%30.42 "Hg4 mi
11:20 PM46 °FPartly cloudy.5 mph93%30.42 "Hg4 mi
10:50 PM45 °FPartly cloudy.5 mph93%30.42 "Hg4 mi
10:20 PM45 °FPartly cloudy.6 mph93%30.39 "Hg5 mi
9:50 PM46 °FPassing clouds.7 mph87%30.39 "Hg6 mi
9:20 PM46 °FPassing clouds.6 mph87%30.39 "HgN/A
8:50 PM46 °FPassing clouds.3 mph87%30.39 "HgN/A
8:20 PM46 °FPassing clouds.3 mph87%30.39 "HgN/A
7:50 PM45 °FPassing clouds.3 mph93%30.39 "HgN/A
7:20 PM46 °FPassing clouds.5 mph87%30.39 "HgN/A
6:50 PM45 °FPassing clouds.5 mph93%30.39 "HgN/A
6:20 PM46 °FPartly cloudy.2 mph87%30.36 "HgN/A
5:50 PM48 °FBroken clouds.3 mph82%30.36 "HgN/A
5:20 PM48 °FPartly sunny.3 mph82%30.39 "HgN/A
4:50 PM48 °FBroken clouds.3 mph82%30.39 "HgN/A
4:20 PM48 °FPartly sunny.2 mph82%30.39 "HgN/A
Weather by CustomWeather, © 2016

See weather overviewHow to use our weather pages